Skip Page Navigation
NASA JPL Caltech
NASA Logo - Jet Propulsion Laboratory + View the NASA Portal
+ Center for Near-Earth Object Studies
JPL Home Earth Solar System Stars & Galaxies Technology
JPL Solar System Dynamics
BODIES ORBITS EPHEMERIDES TOOLS PHYSICAL DATA DISCOVERY FAQ SITE MAP
IMPORTANT: The SSD Announcement email list is now available. Major changes are coming in the near future, including possible hostname and/or URL changes. To be notified of such changes, subscribe to this email list.

Please visit this page for more details.


JPL Small-Body Database Browser
Search: [ help ]  
85914 (1999 CM95)
Classification: Main-belt Asteroid          SPK-ID: 2085914
Ephemeris | Orbit Diagram | Orbital Elements | Mission Design | Physical Parameters | Discovery Circumstances ]

[ show orbit diagram ]
Orbital Elements at Epoch 2458600.5 (2019-Apr-27.0) TDB
Reference: JPL 15 (heliocentric ecliptic J2000)
 Element Value Uncertainty (1-sigma)   Units 
e .1099824370856496 4.6023e-08  
a 2.661220885395939 1.6043e-08 au
q 2.368533326796864 1.2369e-07 au
i 4.74901656572059 4.9756e-06 deg
node 136.7669348693085 5.4875e-05 deg
peri 16.22964588295514 5.8479e-05 deg
M 228.1533323533698 2.1352e-05 deg
tp 2459181.246322730914
(2020-Nov-27.74632273)
9.6396e-05 TDB
period 1585.695565271819
4.34
1.4339e-05
3.926e-08
d
yr
n .2270297072681093 2.0529e-09 deg/d
Q 2.953908443995015 1.7807e-08 au
  Orbit Determination Parameters
   # obs. used (total)      540  
   data-arc span      10396 days (28.46 yr)  
   first obs. used      1991-05-13  
   last obs. used      2019-10-29  
   planetary ephem.      DE431  
   SB-pert. ephem.      SB431-N16  
   condition code      0  
   norm. resid. RMS      .59226  
   source      ORB  
   producer      Otto Matic  
   solution date      2019-Nov-07 10:15:47  

Additional Information
 Earth MOID = 1.37998 au 
 Jupiter MOID = 2.03722 au 
 T_jup = 3.372 
[ show covariance matrix ]

Ephemeris | Orbit Diagram | Orbital Elements | Mission Design | Physical Parameters | Discovery Circumstances ]

Physical Parameter Table
Parameter Symbol Value Units Sigma Reference Notes
absolute magnitude H 15.5   n/a MPO229505  
diameter diameter 3.952 km 0.950 urn:nasa:pds:neowise_diameters_albedos::2.0[mainbelt] (http://adsabs.harvard.edu/abs/2011ApJ...741...68M)  
geometric albedo albedo 0.078   0.046 urn:nasa:pds:neowise_diameters_albedos::2.0[mainbelt] (http://adsabs.harvard.edu/abs/2011ApJ...741...68M)  

85914 (1999 CM95)          Discovered 1999-Feb-10 by LINEAR at Socorro
Reference: 20040830/Numbers.arcLast Updated: 2004-09-06
Ephemeris | Orbit Diagram | Orbital Elements | Mission Design | Physical Parameters | Discovery Circumstances ]
ABOUT SSD CREDITS/AWARDS PRIVACY/COPYRIGHT GLOSSARY LINKS
FirstGov
(server date/time)  
NASA Home Page
Site Manager:   Ryan S. Park
Webmaster  Alan B. Chamberlin